Showing default

CHECKMATE 10, 57762

Orbit data source: Space-Track

CHECKMATE 10, 57762 is a payload satellite owned by SDA (US) in LEO that was launched on Sat, 02 Sep 2023 UTC via an FALCON 9 launch vehicle from the Air Force Western Test Range (AFWTR). Payload-class satellites include a variety of spacecraft equipped with specific instruments for various scientific and technological missions. These include communications satellites like Starlink; space stations such as the ISS; scientific satellites like the Hubble; Earth observation satellites from companies like Planet Labs, Umbra, and HawkEye 360; GPS; miniature CubeSats for education and research; and military/defense satellites.

Loading next visibility...
Identifier
57762, 2023-133F
Orbit
LEO
Country
Flag of USUS
Related business
Manufacturer
York Space Sys
Mission
Operational Defense Communications
Bus & Motor
S-CLASS, Unknown motor
Mass
~300 kg wet, ~300 kg dry
Launch date (UTC)
2023-09-02 (3 years ago)
Launch vehicle
FALCON 9
Launch site
Air Force Western Test Range (AFWTR)
Object type
Payload
Rocket body
Debris
Shape & HBR
Box + 1 Pan, 1.0 m
Radar Cross Section
0.945 m², Large (>1 m²)

Expand to show TLE details & history
Last TLE update: 3 days ago

TLE from 3 days ago
0 CHECKMATE 10
1 57762U 23133F   26170.93960846  .00000055  00000-0  38699-4 0  9999
2 57762  81.0003   4.7652 0006481  10.0601 350.0683 13.85473650141410
Epoch: 2026-06-19T22:33Z
TLE epoch observation values (Epoch: 2026-06-19T22:33:02.170Z)
Latitude
-0.00014°
Longitude
118.34475°
Altitude
942.719 km
Speed
7.383 km/s
True Right ascension
00h 19m 03s
True Declination
0° 00' 00"
Sunlit
Object was in daylight at epoch
Visualization orbit readout
Latitude
Unknown
Longitude
Unknown
Altitude
Unknown
Speed
Unknown
Apparent Right ascension
Unknown
Apparent Declination
Unknown
Sunlit
N/A
Visualization observer readout
Local Sidereal Time
23:19:29
Azimuth
Unknown
Elevation
Unknown
Doppler factor
Unknown
Orbital elements
Apogee altitude
946.499 km
Perigee altitude
937.011 km
Semi-major axis
7,319.892 km
Eccentricity
0.00065
Inclination
81.0003°
RAAN
4.7652°
Arg. of periapsis
10.0601°
True anomaly
350.05548°
Mean anomaly
350.0683°
Eccentric anomaly
350.06189°
Mean motion
3.46566 °/min
Orbital period
103.88 mins
BSTAR
0.000038699
Loading maneuver chart data...
Computing Atmospheric mass density...
Loading historical data...
Loading historical data...
Loading historical data...
Loading historical data...
Loading historical data...
Loading historical data...
Loading historical data...

Documentation

Showing up to 5 results
|